Zurück zum Katalog

STARLINK-31812

AktivKommunikationVLEO
NORAD 59800·PAYLOAD·🇺🇸 United States

Gestartet May 18, 2024 von Cape Canaveral Space Force Station

Loading…

Nächste Überflüge (nächste 24 Stunden)

TLE

AktuellSource: CelesTrak SupGP

Epoche: Sep 15, 2026, 01:53 UTC

1 59800C 24093U   26258.07895833 -.00044781  00000+0 -16220-2 0  2582
2 59800  42.9996 219.4156 0001345 266.3531 286.2439 15.27600145    16

Verfolge STARLINK-31812 in Echtzeit mit AllMySat

Download on the App Store